TJS-7

Last updated on Wed Sep 09 2026 00:03:03 GMT+0000 (Coordinated Universal Time)

1 49115U 21077A 26251.49665551 -.00000144 00000+0 00000+0 0 9992 2 49115 0.1477 262.1773 0001986 93.8996 70.7532 1.00269165 10383
UTC large
Height (km)
Speed (km/s)
/
Latitude / Longitude
Inclination (degrees)
Orbital Period (minutes)
Azimuth
Elevation
Range (km)
Doppler Factor

Next 0 passes for location: London (51.5072 / 0.1276)

No passes found over London.
TJS-7